Location: Newark
(48.3453°N, 0.5589°E)
Time: 19:31:42
(UTC+00:00)

A-11 Canister half - Pass Details

Date: 13 December 2019
Orbit: 1517 x 1683 km, 47.2° (Epoch: 24 January)

Event Time Altitude Azimuth Distance (km) Brightness Sun altitude
Rises 08:54:54 0° 178° (S) 4,692 12.5 8.3°
Reaches altitude 10° 08:59:33 10° 158° (SSE) 3,741 12.9 8.8°
Maximum altitude 09:04:37 16° 125° (SE) 3,332 12.6 9.3°
Drops below altitude 10° 09:09:45 10° 92° (E) 3,822 11.7 9.9°
Sets 09:14:32 0° 73° (ENE) 4,846 11.9 10.3°
